Hovedside
METAR-TAF:

METAR-TAF

Lufthavner :

Namsos, Norge

Namsos lufthavn

breddegrad: 64-28N, lengdegrad: 011-35E, høyde over havet: 0 m

Gjeldene værobservasjon

Denne rapporten ble laget for 18 minutter siden, klokken 07:20 UTC
Vind 17 kt fra Sørvest
Temperatur 5°C
Luftfuktighet 93%
Trykk 1003 hPa
Sikt 10 km eller mer
Få skyer i en høyde av 1000 ft
Brutte skyer i en høyde av 1400 ft
lett regn, duskregn

METAR: ENNM 210720Z 23017KT 9999 -RADZ FEW010 BKN014 05/04 Q1003

Tid: 09:38 (07:38 UTC)


TAF: fraværende

Værobservasjoner og værvarsel for over 4000 flyplasser (METAR- og TAF-rapporter).

Tilgjengelige stasjoner er representert av de røde og gule prikkene på kartet.

Hold musepekeren over prikken for å se navnet på stasjonen.

Klikk så for å se værobservasjoner og -varsler.

For å forandre kartet kan du klikke på den grønne knappen med svart kryss for å zoome inn, på den grønne knappen med strek for å zoome ut, eller på de grønne pilene for å se tilstøtende kart.


METAR-TAF: